User: anonymous   Login
Location: Newark
(49.3808°N, 3.1844°E)
Time: 13:40:53
(UTC+00:00)
Language:

Explorer 7 - Orbit

View from above orbital plane
View from above orbital plane
View from above satellite
View from above satellite

Ground track
Ground track

The orbit data is extracted from the following two-line orbital elements,

1    22U 59009A   19324.89312093 +.00000106 +00000-0 +31085-4 0  9999
2    22 050.2853 005.2092 0140064 178.2226 181.9246 14.94992371439028
Epoch (UTC): 20 November 2019 21:26:05
Eccentricity: 0.0140064
inclination: 50.2853°
perigee height: 485 km
apogee height: 680 km
right ascension of ascending node: 5.2092°
argument of perigee: 178.2226°
revolutions per day: 14.94992371
mean anomaly at epoch: 181.9246°
orbit number at epoch: 43902

The dashed part of the orbit path shows where the satellite is in the earth's shadow,  

DLR